Year,Month,Day,Hour,Minute,Value (Times are PST for temperature in C)
2018,08,06,00,00,17.10
2018,08,06,00,01,17.00
2018,08,06,00,02,17.00
2018,08,06,00,03,16.90
2018,08,06,00,04,16.90
2018,08,06,00,05,16.90
2018,08,06,00,06,16.90
2018,08,06,00,07,16.80
2018,08,06,00,08,16.80
2018,08,06,00,09,16.80
2018,08,06,00,10,16.80
2018,08,06,00,11,16.80
2018,08,06,00,12,16.80
2018,08,06,00,13,16.80
2018,08,06,00,14,16.80
2018,08,06,00,15,16.80
2018,08,06,00,16,16.70
2018,08,06,00,17,16.70
2018,08,06,00,18,16.70
2018,08,06,00,19,16.70
2018,08,06,00,20,16.70
2018,08,06,00,21,16.70
2018,08,06,00,22,16.70
2018,08,06,00,23,16.70
2018,08,06,00,24,16.70
2018,08,06,00,25,16.70
2018,08,06,00,26,16.70
2018,08,06,00,27,16.70
2018,08,06,00,28,16.70
2018,08,06,00,29,16.70
2018,08,06,00,30,16.80
2018,08,06,00,31,16.80
2018,08,06,00,32,16.80
2018,08,06,00,33,16.80
2018,08,06,00,34,16.80
2018,08,06,00,35,16.80
2018,08,06,00,36,16.80
2018,08,06,00,37,16.90
2018,08,06,00,38,16.90
2018,08,06,00,39,16.90
2018,08,06,00,40,16.90
2018,08,06,00,41,16.90
2018,08,06,00,42,16.90
2018,08,06,00,43,16.90
2018,08,06,00,44,16.90
2018,08,06,00,45,16.90
2018,08,06,00,46,16.90
2018,08,06,00,47,16.90
2018,08,06,00,48,16.80
2018,08,06,00,49,16.80
2018,08,06,00,50,16.80
2018,08,06,00,51,16.80
2018,08,06,00,52,16.80
2018,08,06,00,53,16.80
2018,08,06,00,54,16.80
2018,08,06,00,55,16.70
2018,08,06,00,56,16.70
2018,08,06,00,57,16.70
2018,08,06,00,58,16.60
2018,08,06,00,59,16.60
2018,08,06,01,00,16.60
2018,08,06,01,01,16.60
2018,08,06,01,02,16.50
2018,08,06,01,03,16.50
2018,08,06,01,04,16.50
2018,08,06,01,05,16.40
2018,08,06,01,06,16.40
2018,08,06,01,07,16.40
2018,08,06,01,08,16.40
2018,08,06,01,09,16.50
2018,08,06,01,10,16.50
2018,08,06,01,11,16.50
2018,08,06,01,12,16.50
2018,08,06,01,13,16.50
2018,08,06,01,14,16.50
2018,08,06,01,15,16.50
2018,08,06,01,16,16.50
2018,08,06,01,17,16.50
2018,08,06,01,18,16.60
2018,08,06,01,19,16.60
2018,08,06,01,20,16.60
2018,08,06,01,21,16.60
2018,08,06,01,22,16.60
2018,08,06,01,23,16.60
2018,08,06,01,24,16.60
2018,08,06,01,25,16.60
2018,08,06,01,26,16.60
2018,08,06,01,27,16.60
2018,08,06,01,28,16.60
2018,08,06,01,29,16.60
2018,08,06,01,30,16.70
2018,08,06,01,31,16.70
2018,08,06,01,32,16.70
2018,08,06,01,33,16.70
2018,08,06,01,34,16.70
2018,08,06,01,35,16.70
2018,08,06,01,36,16.70
2018,08,06,01,37,16.70
2018,08,06,01,38,16.70
2018,08,06,01,39,16.70
2018,08,06,01,40,16.70
2018,08,06,01,41,16.70
2018,08,06,01,42,16.70
2018,08,06,01,43,16.70
2018,08,06,01,44,16.70
2018,08,06,01,45,16.70
2018,08,06,01,46,16.60
2018,08,06,01,47,16.60
2018,08,06,01,48,16.60
2018,08,06,01,49,16.60
2018,08,06,01,50,16.60
2018,08,06,01,51,16.60
2018,08,06,01,52,16.60
2018,08,06,01,53,16.60
2018,08,06,01,54,16.60
2018,08,06,01,55,16.50
2018,08,06,01,56,16.50
2018,08,06,01,57,16.50
2018,08,06,01,58,16.50
2018,08,06,01,59,16.40
2018,08,06,02,00,16.40
2018,08,06,02,01,16.40
2018,08,06,02,02,16.40
2018,08,06,02,03,16.40
2018,08,06,02,04,16.30
2018,08,06,02,05,16.30
2018,08,06,02,06,16.30
2018,08,06,02,07,16.30
2018,08,06,02,08,16.30
2018,08,06,02,09,16.30
2018,08,06,02,10,16.30
2018,08,06,02,11,16.30
2018,08,06,02,12,16.30
2018,08,06,02,13,16.30
2018,08,06,02,14,16.20
2018,08,06,02,15,16.20
2018,08,06,02,16,16.20
2018,08,06,02,17,16.20
2018,08,06,02,18,16.20
2018,08,06,02,19,16.20
2018,08,06,02,20,16.30
2018,08,06,02,21,16.30
2018,08,06,02,22,16.30
2018,08,06,02,23,16.30
2018,08,06,02,24,16.30
2018,08,06,02,25,16.30
2018,08,06,02,26,16.30
2018,08,06,02,27,16.30
2018,08,06,02,28,16.30
2018,08,06,02,29,16.30
2018,08,06,02,30,16.30
2018,08,06,02,31,16.30
2018,08,06,02,32,16.20
2018,08,06,02,33,16.20
2018,08,06,02,34,16.20
2018,08,06,02,35,16.20
2018,08,06,02,36,16.20
2018,08,06,02,37,16.20
2018,08,06,02,38,16.20
2018,08,06,02,39,16.10
2018,08,06,02,40,16.10
2018,08,06,02,41,16.10
2018,08,06,02,42,16.00
2018,08,06,02,43,16.00
2018,08,06,02,44,15.90
2018,08,06,02,45,15.90
2018,08,06,02,46,15.90
2018,08,06,02,47,15.80
2018,08,06,02,48,15.80
2018,08,06,02,49,15.80
2018,08,06,02,50,15.80
2018,08,06,02,51,15.70
2018,08,06,02,52,15.70
2018,08,06,02,53,15.70
2018,08,06,02,54,15.70
2018,08,06,02,55,15.70
2018,08,06,02,56,15.60
2018,08,06,02,57,15.60
2018,08,06,02,58,15.60
2018,08,06,02,59,15.60
2018,08,06,03,00,15.60
2018,08,06,03,01,15.60
2018,08,06,03,02,15.60
2018,08,06,03,03,15.60
2018,08,06,03,04,15.70
2018,08,06,03,05,15.70
2018,08,06,03,06,15.70
2018,08,06,03,07,15.70
2018,08,06,03,08,15.70
2018,08,06,03,09,15.70
2018,08,06,03,10,15.70
2018,08,06,03,11,15.70
2018,08,06,03,12,15.70
2018,08,06,03,13,15.60
2018,08,06,03,14,15.60
2018,08,06,03,15,15.60
2018,08,06,03,16,15.60
2018,08,06,03,17,15.60
2018,08,06,03,18,15.60
2018,08,06,03,19,15.60
2018,08,06,03,20,15.60
2018,08,06,03,21,15.60
2018,08,06,03,22,15.60
2018,08,06,03,23,15.60
2018,08,06,03,24,15.50
2018,08,06,03,25,15.50
2018,08,06,03,26,15.50
2018,08,06,03,27,15.50
2018,08,06,03,28,15.60
2018,08,06,03,29,15.60
2018,08,06,03,30,15.60
2018,08,06,03,31,15.60
2018,08,06,03,32,15.60
2018,08,06,03,33,15.60
2018,08,06,03,34,15.60
2018,08,06,03,35,15.60
2018,08,06,03,36,15.60
2018,08,06,03,37,15.60
2018,08,06,03,38,15.60
2018,08,06,03,39,15.60
2018,08,06,03,40,15.60
2018,08,06,03,41,15.60
2018,08,06,03,42,15.60
2018,08,06,03,43,15.60
2018,08,06,03,44,15.60
2018,08,06,03,45,15.60
2018,08,06,03,46,15.60
2018,08,06,03,47,15.60
2018,08,06,03,48,15.60
2018,08,06,03,49,15.60
2018,08,06,03,50,15.60
2018,08,06,03,51,15.60
2018,08,06,03,52,15.60
2018,08,06,03,53,15.50
2018,08,06,03,54,15.50
2018,08,06,03,55,15.40
2018,08,06,03,56,15.40
2018,08,06,03,57,15.30
2018,08,06,03,58,15.30
2018,08,06,03,59,15.20
2018,08,06,04,00,15.20
2018,08,06,04,01,15.20
2018,08,06,04,02,15.10
2018,08,06,04,03,15.10
2018,08,06,04,04,15.10
2018,08,06,04,05,15.10
2018,08,06,04,06,15.10
2018,08,06,04,07,15.10
2018,08,06,04,08,15.00
2018,08,06,04,09,15.00
2018,08,06,04,10,15.00
2018,08,06,04,11,15.00
2018,08,06,04,12,15.00
2018,08,06,04,13,14.90
2018,08,06,04,14,14.90
2018,08,06,04,15,14.90
2018,08,06,04,16,14.90
2018,08,06,04,17,14.90
2018,08,06,04,18,14.90
2018,08,06,04,19,14.90
2018,08,06,04,20,14.90
2018,08,06,04,21,14.90
2018,08,06,04,22,14.90
2018,08,06,04,23,14.90
2018,08,06,04,24,14.90
2018,08,06,04,25,14.90
2018,08,06,04,26,14.90
2018,08,06,04,27,14.90
2018,08,06,04,28,14.90
2018,08,06,04,29,14.80
2018,08,06,04,30,14.80
2018,08,06,04,31,14.80
2018,08,06,04,32,14.80
2018,08,06,04,33,14.80
2018,08,06,04,34,14.80
2018,08,06,04,35,14.80
2018,08,06,04,36,14.80
2018,08,06,04,37,14.80
2018,08,06,04,38,14.80
2018,08,06,04,39,14.80
2018,08,06,04,40,14.90
2018,08,06,04,41,14.90
2018,08,06,04,42,14.90
2018,08,06,04,43,14.90
2018,08,06,04,44,14.90
2018,08,06,04,45,14.90
2018,08,06,04,46,14.90
2018,08,06,04,47,14.90
2018,08,06,04,48,14.90
2018,08,06,04,49,14.90
2018,08,06,04,50,14.90
2018,08,06,04,51,14.90
2018,08,06,04,52,14.90
2018,08,06,04,53,14.90
2018,08,06,04,54,14.90
2018,08,06,04,55,14.90
2018,08,06,04,56,14.90
2018,08,06,04,57,14.80
2018,08,06,04,58,14.80
2018,08,06,04,59,14.80
2018,08,06,05,00,14.80
2018,08,06,05,01,14.80
2018,08,06,05,02,14.80
2018,08,06,05,03,14.80
2018,08,06,05,04,14.80
2018,08,06,05,05,14.80
2018,08,06,05,06,14.70
2018,08,06,05,07,14.70
2018,08,06,05,08,14.70
2018,08,06,05,09,14.70
2018,08,06,05,10,14.70
2018,08,06,05,11,14.70
2018,08,06,05,12,14.70
2018,08,06,05,13,14.70
2018,08,06,05,14,14.70
2018,08,06,05,15,14.70
2018,08,06,05,16,14.70
2018,08,06,05,17,14.70
2018,08,06,05,18,14.70
2018,08,06,05,19,14.70
2018,08,06,05,20,14.80
2018,08,06,05,21,14.80
2018,08,06,05,22,14.80
2018,08,06,05,23,14.80
2018,08,06,05,24,14.80
2018,08,06,05,25,14.80
2018,08,06,05,26,14.70
2018,08,06,05,27,14.70
2018,08,06,05,28,14.60
2018,08,06,05,29,14.50
2018,08,06,05,30,14.50
2018,08,06,05,31,14.40
2018,08,06,05,32,14.40
2018,08,06,05,33,14.30
2018,08,06,05,34,14.30
2018,08,06,05,35,14.20
2018,08,06,05,36,14.20
2018,08,06,05,37,14.20
2018,08,06,05,38,14.10
2018,08,06,05,39,14.10
2018,08,06,05,40,14.00
2018,08,06,05,41,14.00
2018,08,06,05,42,14.00
2018,08,06,05,43,14.00
2018,08,06,05,44,14.00
2018,08,06,05,45,14.00
2018,08,06,05,46,14.00
2018,08,06,05,47,13.90
2018,08,06,05,48,13.90
2018,08,06,05,49,13.90
2018,08,06,05,50,13.90
2018,08,06,05,51,13.90
2018,08,06,05,52,13.80
2018,08,06,05,53,13.80
2018,08,06,05,54,13.80
2018,08,06,05,55,13.80
2018,08,06,05,56,13.80
2018,08,06,05,57,13.80
2018,08,06,05,58,13.80
2018,08,06,05,59,13.80
2018,08,06,06,00,13.80
2018,08,06,06,01,13.80
2018,08,06,06,02,13.80
2018,08,06,06,03,13.80
2018,08,06,06,04,13.80
2018,08,06,06,05,13.80
2018,08,06,06,06,13.80
2018,08,06,06,07,13.80
2018,08,06,06,08,13.80
2018,08,06,06,09,13.80
2018,08,06,06,10,13.80
2018,08,06,06,11,13.80
2018,08,06,06,12,13.80
2018,08,06,06,13,13.80
2018,08,06,06,14,13.80
2018,08,06,06,15,13.80
2018,08,06,06,16,13.80
2018,08,06,06,17,13.80
2018,08,06,06,18,13.80
2018,08,06,06,19,13.80
2018,08,06,06,20,13.80
2018,08,06,06,21,13.80
2018,08,06,06,22,13.80
2018,08,06,06,23,13.90
2018,08,06,06,24,13.80
2018,08,06,06,25,13.90
2018,08,06,06,26,13.90
2018,08,06,06,27,13.90
2018,08,06,06,28,13.90
2018,08,06,06,29,13.90
2018,08,06,06,30,13.90
2018,08,06,06,31,14.00
2018,08,06,06,32,14.00
2018,08,06,06,33,14.00
2018,08,06,06,34,14.00
2018,08,06,06,35,14.10
2018,08,06,06,36,14.10
2018,08,06,06,37,14.10
2018,08,06,06,38,14.10
2018,08,06,06,39,14.20
2018,08,06,06,40,14.20
2018,08,06,06,41,14.30
2018,08,06,06,42,14.30
2018,08,06,06,43,14.40
2018,08,06,06,44,14.40
2018,08,06,06,45,14.50
2018,08,06,06,46,14.60
2018,08,06,06,47,14.60
2018,08,06,06,48,14.60
2018,08,06,06,49,14.70
2018,08,06,06,50,14.70
2018,08,06,06,51,14.70
2018,08,06,06,52,14.80
2018,08,06,06,53,14.80
2018,08,06,06,54,14.80
2018,08,06,06,55,14.90
2018,08,06,06,56,14.90
2018,08,06,06,57,14.90
2018,08,06,06,58,14.90
2018,08,06,06,59,14.90
2018,08,06,07,00,14.90
2018,08,06,07,01,14.90
2018,08,06,07,02,15.00
2018,08,06,07,03,15.00
2018,08,06,07,04,15.00
2018,08,06,07,05,15.00
2018,08,06,07,06,15.10
2018,08,06,07,07,15.10
2018,08,06,07,08,15.10
2018,08,06,07,09,15.10
2018,08,06,07,10,15.20
2018,08,06,07,11,15.20
2018,08,06,07,12,15.20
2018,08,06,07,13,15.30
2018,08,06,07,14,15.30
2018,08,06,07,15,15.40
2018,08,06,07,16,15.40
2018,08,06,07,17,15.50
2018,08,06,07,18,15.50
2018,08,06,07,19,15.60
2018,08,06,07,20,15.60
2018,08,06,07,21,15.70
2018,08,06,07,22,15.70
2018,08,06,07,23,15.80
2018,08,06,07,24,15.80
2018,08,06,07,25,15.80
2018,08,06,07,26,15.90
2018,08,06,07,27,15.90
2018,08,06,07,28,15.90
2018,08,06,07,29,15.90
2018,08,06,07,30,16.00
2018,08,06,07,31,16.00
2018,08,06,07,32,16.00
2018,08,06,07,33,16.00
2018,08,06,07,34,16.00
2018,08,06,07,35,16.00
2018,08,06,07,36,16.00
2018,08,06,07,37,16.00
2018,08,06,07,38,16.00
2018,08,06,07,39,16.00
2018,08,06,07,40,16.00
2018,08,06,07,41,16.00
2018,08,06,07,42,16.10
2018,08,06,07,43,16.10
2018,08,06,07,44,16.20
2018,08,06,07,45,16.20
2018,08,06,07,46,16.30
2018,08,06,07,47,16.30
2018,08,06,07,48,16.40
2018,08,06,07,49,16.40
2018,08,06,07,50,16.50
2018,08,06,07,51,16.50
2018,08,06,07,52,16.60
2018,08,06,07,53,16.70
2018,08,06,07,54,16.70
2018,08,06,07,55,16.80
2018,08,06,07,56,16.90
2018,08,06,07,57,17.00
2018,08,06,07,58,17.10
2018,08,06,07,59,17.20
2018,08,06,08,00,17.20
2018,08,06,08,01,17.30
2018,08,06,08,02,17.40
2018,08,06,08,03,17.50
2018,08,06,08,04,17.60
2018,08,06,08,05,17.70
2018,08,06,08,06,17.70
2018,08,06,08,07,17.80
2018,08,06,08,08,17.90
2018,08,06,08,09,17.90
2018,08,06,08,10,18.00
2018,08,06,08,11,18.00
2018,08,06,08,12,18.10
2018,08,06,08,13,18.10
2018,08,06,08,14,18.20
2018,08,06,08,15,18.30
2018,08,06,08,16,18.30
2018,08,06,08,17,18.40
2018,08,06,08,18,18.40
2018,08,06,08,19,18.50
2018,08,06,08,20,18.60
2018,08,06,08,21,18.60
2018,08,06,08,22,18.70
2018,08,06,08,23,18.70
2018,08,06,08,24,18.80
2018,08,06,08,25,18.80
2018,08,06,08,26,18.90
2018,08,06,08,27,19.00
2018,08,06,08,28,19.00
2018,08,06,08,29,19.00
2018,08,06,08,30,19.10
2018,08,06,08,31,19.20
2018,08,06,08,32,19.20
2018,08,06,08,33,19.30
2018,08,06,08,34,19.30
2018,08,06,08,35,19.40
2018,08,06,08,36,19.40
2018,08,06,08,37,19.40
2018,08,06,08,38,19.50
2018,08,06,08,39,19.50
2018,08,06,08,40,19.60
2018,08,06,08,41,19.60
2018,08,06,08,42,19.60
2018,08,06,08,43,19.60
2018,08,06,08,44,19.60
2018,08,06,08,45,19.60
2018,08,06,08,46,19.60
2018,08,06,08,47,19.60
2018,08,06,08,48,19.60
2018,08,06,08,49,19.60
2018,08,06,08,50,19.60
2018,08,06,08,51,19.70
2018,08,06,08,52,19.80
2018,08,06,08,53,19.80
2018,08,06,08,54,19.90
2018,08,06,08,55,20.00
2018,08,06,08,56,20.10
2018,08,06,08,57,20.10
2018,08,06,08,58,20.10
2018,08,06,08,59,20.10
2018,08,06,09,00,20.10
2018,08,06,09,01,20.10
2018,08,06,09,02,20.20
2018,08,06,09,03,20.20
2018,08,06,09,04,20.30
2018,08,06,09,05,20.30
2018,08,06,09,06,20.40
2018,08,06,09,07,20.40
2018,08,06,09,08,20.40
2018,08,06,09,09,20.40
2018,08,06,09,10,20.50
2018,08,06,09,11,20.60
2018,08,06,09,12,20.60
2018,08,06,09,13,20.70
2018,08,06,09,14,20.80
2018,08,06,09,15,20.90
2018,08,06,09,16,20.90
2018,08,06,09,17,21.00
2018,08,06,09,18,21.10
2018,08,06,09,19,21.20
2018,08,06,09,20,21.20
2018,08,06,09,21,21.30
2018,08,06,09,22,21.30
2018,08,06,09,23,21.40
2018,08,06,09,24,21.50
2018,08,06,09,25,21.60
2018,08,06,09,26,21.60
2018,08,06,09,27,21.70
2018,08,06,09,28,21.70
2018,08,06,09,29,21.70
2018,08,06,09,30,21.70
2018,08,06,09,31,21.70
2018,08,06,09,32,21.70
2018,08,06,09,33,21.70
2018,08,06,09,34,21.80
2018,08,06,09,35,21.80
2018,08,06,09,36,21.80
2018,08,06,09,37,21.80
2018,08,06,09,38,21.80
2018,08,06,09,39,21.90
2018,08,06,09,40,21.90
2018,08,06,09,41,22.00
2018,08,06,09,42,22.10
2018,08,06,09,43,22.20
2018,08,06,09,44,22.20
2018,08,06,09,45,22.30
2018,08,06,09,46,22.40
2018,08,06,09,47,22.50
2018,08,06,09,48,22.50
2018,08,06,09,49,22.60
2018,08,06,09,50,22.60
2018,08,06,09,51,22.60
2018,08,06,09,52,22.70
2018,08,06,09,53,22.80
2018,08,06,09,54,22.80
2018,08,06,09,55,22.80
2018,08,06,09,56,22.80
2018,08,06,09,57,22.90
2018,08,06,09,58,23.00
2018,08,06,09,59,23.00
2018,08,06,10,00,23.10
2018,08,06,10,01,23.10
2018,08,06,10,02,23.20
2018,08,06,10,03,23.20
2018,08,06,10,04,23.20
2018,08,06,10,05,23.20
2018,08,06,10,06,23.20
2018,08,06,10,07,23.30
2018,08,06,10,08,23.30
2018,08,06,10,09,23.40
2018,08,06,10,10,23.40
2018,08,06,10,11,23.50
2018,08,06,10,12,23.60
2018,08,06,10,13,23.70
2018,08,06,10,14,23.70
2018,08,06,10,15,23.70
2018,08,06,10,16,23.70
2018,08,06,10,17,23.70
2018,08,06,10,18,23.70
2018,08,06,10,19,23.70
2018,08,06,10,20,23.60
2018,08,06,10,21,23.60
2018,08,06,10,22,23.60
2018,08,06,10,23,23.60
2018,08,06,10,24,23.60
2018,08,06,10,25,23.60
2018,08,06,10,26,23.70
2018,08,06,10,27,23.70
2018,08,06,10,28,23.70
2018,08,06,10,29,23.80
2018,08,06,10,30,23.80
2018,08,06,10,31,23.80
2018,08,06,10,32,23.80
2018,08,06,10,33,23.80
2018,08,06,10,34,23.80
2018,08,06,10,35,23.80
2018,08,06,10,36,23.70
2018,08,06,10,37,23.70
2018,08,06,10,38,23.70
2018,08,06,10,39,23.70
2018,08,06,10,40,23.70
2018,08,06,10,41,23.60
2018,08,06,10,42,23.60
2018,08,06,10,43,23.60
2018,08,06,10,44,23.50
2018,08,06,10,45,23.40
2018,08,06,10,46,23.30
2018,08,06,10,47,23.30
2018,08,06,10,48,23.30
2018,08,06,10,49,23.30
2018,08,06,10,50,23.30
2018,08,06,10,51,23.20
2018,08,06,10,52,23.20
2018,08,06,10,53,23.10
2018,08,06,10,54,23.00
2018,08,06,10,55,22.90
2018,08,06,10,56,23.00
2018,08,06,10,57,23.00
2018,08,06,10,58,23.10
2018,08,06,10,59,23.10
2018,08,06,11,00,23.10
2018,08,06,11,01,23.10
2018,08,06,11,02,23.10
2018,08,06,11,03,23.10
2018,08,06,11,04,23.20
2018,08,06,11,05,23.20
2018,08,06,11,06,23.20
2018,08,06,11,07,23.30
2018,08,06,11,08,23.30
2018,08,06,11,09,23.30
2018,08,06,11,10,23.30
2018,08,06,11,11,23.30
2018,08,06,11,12,23.20
2018,08,06,11,13,23.20
2018,08,06,11,14,23.10
2018,08,06,11,15,23.10
2018,08,06,11,16,23.10
2018,08,06,11,17,23.10
2018,08,06,11,18,23.10
2018,08,06,11,19,23.10
2018,08,06,11,20,23.20
2018,08,06,11,21,23.10
2018,08,06,11,22,23.10
2018,08,06,11,23,23.10
2018,08,06,11,24,23.10
2018,08,06,11,25,23.10
2018,08,06,11,26,23.20
2018,08,06,11,27,23.10
2018,08,06,11,28,23.10
2018,08,06,11,29,23.10
2018,08,06,11,30,23.10
2018,08,06,11,31,23.10
2018,08,06,11,32,23.10
2018,08,06,11,33,23.20
2018,08,06,11,34,23.20
2018,08,06,11,35,23.20
2018,08,06,11,36,23.20
2018,08,06,11,37,23.20
2018,08,06,11,38,23.20
2018,08,06,11,39,23.30
2018,08,06,11,40,23.40
2018,08,06,11,41,23.50
2018,08,06,11,42,23.70
2018,08,06,11,43,23.80
2018,08,06,11,44,23.90
2018,08,06,11,45,23.90
2018,08,06,11,46,23.90
2018,08,06,11,47,23.80
2018,08,06,11,48,23.80
2018,08,06,11,49,23.80
2018,08,06,11,50,23.80
2018,08,06,11,51,23.80
2018,08,06,11,52,23.80
2018,08,06,11,53,23.70
2018,08,06,11,54,23.70
2018,08,06,11,55,23.80
2018,08,06,11,56,23.90
2018,08,06,11,57,24.00
2018,08,06,11,58,24.10
2018,08,06,11,59,24.10
2018,08,06,12,00,24.20
2018,08,06,12,01,24.20
2018,08,06,12,02,24.20
2018,08,06,12,03,24.10
2018,08,06,12,04,24.00
2018,08,06,12,05,23.90
2018,08,06,12,06,23.80
2018,08,06,12,07,23.80
2018,08,06,12,08,23.80
2018,08,06,12,09,23.90
2018,08,06,12,10,23.90
2018,08,06,12,11,23.90
2018,08,06,12,12,24.00
2018,08,06,12,13,24.10
2018,08,06,12,14,24.20
2018,08,06,12,15,24.30
2018,08,06,12,16,24.40
2018,08,06,12,17,24.40
2018,08,06,12,18,24.40
2018,08,06,12,19,24.50
2018,08,06,12,20,24.50
2018,08,06,12,21,24.40
2018,08,06,12,22,24.40
2018,08,06,12,23,24.40
2018,08,06,12,24,24.30
2018,08,06,12,25,24.30
2018,08,06,12,26,24.30
2018,08,06,12,27,24.40
2018,08,06,12,28,24.40
2018,08,06,12,29,24.40
2018,08,06,12,30,24.40
2018,08,06,12,31,24.50
2018,08,06,12,32,24.50
2018,08,06,12,33,24.60
2018,08,06,12,34,24.60
2018,08,06,12,35,24.60
2018,08,06,12,36,24.60
2018,08,06,12,37,24.60
2018,08,06,12,38,24.60
2018,08,06,12,39,24.70
2018,08,06,12,40,24.70
2018,08,06,12,41,24.80
2018,08,06,12,42,24.80
2018,08,06,12,43,24.80
2018,08,06,12,44,24.80
2018,08,06,12,45,24.80
2018,08,06,12,46,24.80
2018,08,06,12,47,24.80
2018,08,06,12,48,24.80
2018,08,06,12,49,24.80
2018,08,06,12,50,24.90
2018,08,06,12,51,25.00
2018,08,06,12,52,25.00
2018,08,06,12,53,25.10
2018,08,06,12,54,25.10
2018,08,06,12,55,25.10
2018,08,06,12,56,25.10
2018,08,06,12,57,25.20
2018,08,06,12,58,25.20
2018,08,06,12,59,25.20
2018,08,06,13,00,25.20
2018,08,06,13,01,25.20
2018,08,06,13,02,25.30
2018,08,06,13,03,25.30
2018,08,06,13,04,25.40
2018,08,06,13,05,25.40
2018,08,06,13,06,25.40
2018,08,06,13,07,25.40
2018,08,06,13,08,25.40
2018,08,06,13,09,25.50
2018,08,06,13,10,25.50
2018,08,06,13,11,25.50
2018,08,06,13,12,25.60
2018,08,06,13,13,25.60
2018,08,06,13,14,25.60
2018,08,06,13,15,25.60
2018,08,06,13,16,25.60
2018,08,06,13,17,25.60
2018,08,06,13,18,25.60
2018,08,06,13,19,25.60
2018,08,06,13,20,25.60
2018,08,06,13,21,25.70
2018,08,06,13,22,25.70
2018,08,06,13,23,25.80
2018,08,06,13,24,25.80
2018,08,06,13,25,25.80
2018,08,06,13,26,25.80
2018,08,06,13,27,25.80
2018,08,06,13,28,25.80
2018,08,06,13,29,25.90
2018,08,06,13,30,25.90
2018,08,06,13,31,26.00
2018,08,06,13,32,26.10
2018,08,06,13,33,26.10
2018,08,06,13,34,26.20
2018,08,06,13,35,26.20
2018,08,06,13,36,26.20
2018,08,06,13,37,26.10
2018,08,06,13,38,26.20
2018,08,06,13,39,26.20
2018,08,06,13,40,26.30
2018,08,06,13,41,26.30
2018,08,06,13,42,26.40
2018,08,06,13,43,26.40
2018,08,06,13,44,26.50
2018,08,06,13,45,26.50
2018,08,06,13,46,26.50
2018,08,06,13,47,26.40
2018,08,06,13,48,26.30
2018,08,06,13,49,26.30
2018,08,06,13,50,26.30
2018,08,06,13,51,26.20
2018,08,06,13,52,26.20
2018,08,06,13,53,26.10
2018,08,06,13,54,26.10
2018,08,06,13,55,26.10
2018,08,06,13,56,26.10
2018,08,06,13,57,26.00
2018,08,06,13,58,25.90
2018,08,06,13,59,25.80
2018,08,06,14,00,25.80
2018,08,06,14,01,25.60
2018,08,06,14,02,25.60
2018,08,06,14,03,25.50
2018,08,06,14,04,25.40
2018,08,06,14,05,25.40
2018,08,06,14,06,25.40
2018,08,06,14,07,25.40
2018,08,06,14,08,25.40
2018,08,06,14,09,25.50
2018,08,06,14,10,25.50
2018,08,06,14,11,25.50
2018,08,06,14,12,25.60
2018,08,06,14,13,25.60
2018,08,06,14,14,25.60
2018,08,06,14,15,25.60
2018,08,06,14,16,25.70
2018,08,06,14,17,25.80
2018,08,06,14,18,25.80
2018,08,06,14,19,25.80
2018,08,06,14,20,25.80
2018,08,06,14,21,25.80
2018,08,06,14,22,25.80
2018,08,06,14,23,25.80
2018,08,06,14,24,25.90
2018,08,06,14,25,25.90
2018,08,06,14,26,26.00
2018,08,06,14,27,26.10
2018,08,06,14,28,26.10
2018,08,06,14,29,26.20
2018,08,06,14,30,26.20
2018,08,06,14,31,26.20
2018,08,06,14,32,26.20
2018,08,06,14,33,26.20
2018,08,06,14,34,26.30
2018,08,06,14,35,26.30
2018,08,06,14,36,26.30
2018,08,06,14,37,26.30
2018,08,06,14,38,26.30
2018,08,06,14,39,26.30
2018,08,06,14,40,26.30
2018,08,06,14,41,26.40
2018,08,06,14,42,26.50
2018,08,06,14,43,26.60
2018,08,06,14,44,26.70
2018,08,06,14,45,26.80
2018,08,06,14,46,26.90
2018,08,06,14,47,27.00
2018,08,06,14,48,27.10
2018,08,06,14,49,27.10
2018,08,06,14,50,27.10
2018,08,06,14,51,27.00
2018,08,06,14,52,26.90
2018,08,06,14,53,26.90
2018,08,06,14,54,26.90
2018,08,06,14,55,26.90
2018,08,06,14,56,26.90
2018,08,06,14,57,26.90
2018,08,06,14,58,26.90
2018,08,06,14,59,27.00
2018,08,06,15,00,27.00
2018,08,06,15,01,27.10
2018,08,06,15,02,27.10
2018,08,06,15,03,27.10
2018,08,06,15,04,27.20
2018,08,06,15,05,27.20
2018,08,06,15,06,27.10
2018,08,06,15,07,27.10
2018,08,06,15,08,27.00
2018,08,06,15,09,27.00
2018,08,06,15,10,27.00
2018,08,06,15,11,26.90
2018,08,06,15,12,26.80
2018,08,06,15,13,26.80
2018,08,06,15,14,26.80
2018,08,06,15,15,26.90
2018,08,06,15,16,26.90
2018,08,06,15,17,26.80
2018,08,06,15,18,26.70
2018,08,06,15,19,26.70
2018,08,06,15,20,26.70
2018,08,06,15,21,26.70
2018,08,06,15,22,26.70
2018,08,06,15,23,26.70
2018,08,06,15,24,26.80
2018,08,06,15,25,26.90
2018,08,06,15,26,26.90
2018,08,06,15,27,27.00
2018,08,06,15,28,27.10
2018,08,06,15,29,27.10
2018,08,06,15,30,27.20
2018,08,06,15,31,27.20
2018,08,06,15,32,27.30
2018,08,06,15,33,27.30
2018,08,06,15,34,27.30
2018,08,06,15,35,27.40
2018,08,06,15,36,27.40
2018,08,06,15,37,27.50
2018,08,06,15,38,27.50
2018,08,06,15,39,27.60
2018,08,06,15,40,27.60
2018,08,06,15,41,27.60
2018,08,06,15,42,27.70
2018,08,06,15,43,27.70
2018,08,06,15,44,27.70
2018,08,06,15,45,27.70
2018,08,06,15,46,27.70
2018,08,06,15,47,27.70
2018,08,06,15,48,27.70
2018,08,06,15,49,27.70
2018,08,06,15,50,27.70
2018,08,06,15,51,27.80
2018,08,06,15,52,27.70
2018,08,06,15,53,27.70
2018,08,06,15,54,27.60
2018,08,06,15,55,27.60
2018,08,06,15,56,27.60
2018,08,06,15,57,27.60
2018,08,06,15,58,27.60
2018,08,06,15,59,27.70
2018,08,06,16,00,27.80
2018,08,06,16,01,27.80
2018,08,06,16,02,27.90
2018,08,06,16,03,28.00
2018,08,06,16,04,28.00
2018,08,06,16,05,28.00
2018,08,06,16,06,28.00
2018,08,06,16,07,28.10
2018,08,06,16,08,28.10
2018,08,06,16,09,28.10
2018,08,06,16,10,28.10
2018,08,06,16,11,28.00
2018,08,06,16,12,28.00
2018,08,06,16,13,27.90
2018,08,06,16,14,27.80
2018,08,06,16,15,27.80
2018,08,06,16,16,27.70
2018,08,06,16,17,27.60
2018,08,06,16,18,27.60
2018,08,06,16,19,27.60
2018,08,06,16,20,27.60
2018,08,06,16,21,27.60
2018,08,06,16,22,27.60
2018,08,06,16,23,27.60
2018,08,06,16,24,27.60
2018,08,06,16,25,27.60
2018,08,06,16,26,27.60
2018,08,06,16,27,27.60
2018,08,06,16,28,27.50
2018,08,06,16,29,27.40
2018,08,06,16,30,27.40
2018,08,06,16,31,27.30
2018,08,06,16,32,27.30
2018,08,06,16,33,27.30
2018,08,06,16,34,27.40
2018,08,06,16,35,27.40
2018,08,06,16,36,27.50
2018,08,06,16,37,27.50
2018,08,06,16,38,27.60
2018,08,06,16,39,27.60
2018,08,06,16,40,27.70
2018,08,06,16,41,27.80
2018,08,06,16,42,27.80
2018,08,06,16,43,27.90
2018,08,06,16,44,28.00
2018,08,06,16,45,28.00
2018,08,06,16,46,28.10
2018,08,06,16,47,28.10
2018,08,06,16,48,28.10
2018,08,06,16,49,28.10
2018,08,06,16,50,28.20
2018,08,06,16,51,28.30
2018,08,06,16,52,28.40
2018,08,06,16,53,28.50
2018,08,06,16,54,28.50
2018,08,06,16,55,28.50
2018,08,06,16,56,28.50
2018,08,06,16,57,28.50
2018,08,06,16,58,28.50
2018,08,06,16,59,28.50
2018,08,06,17,00,28.50
2018,08,06,17,01,28.60
2018,08,06,17,02,28.70
2018,08,06,17,03,28.70
2018,08,06,17,04,28.80
2018,08,06,17,05,28.90
2018,08,06,17,06,29.00
2018,08,06,17,07,29.00
2018,08,06,17,08,29.10
2018,08,06,17,09,29.20
2018,08,06,17,10,29.20
2018,08,06,17,11,29.20
2018,08,06,17,12,29.30
2018,08,06,17,13,29.30
2018,08,06,17,14,29.30
2018,08,06,17,15,29.30
2018,08,06,17,16,29.30
2018,08,06,17,17,29.30
2018,08,06,17,18,29.30
2018,08,06,17,19,29.40